Wetbulb
53.88 53.88 53.92 54.09 54.02 54.20 54.32 54.40 54.58 55.05 55.36 55.81 56.13 56.27 56.53 56.63 56.13 50.51 45.06 48.95 52.37 58.45 60.23 52.80 49.95 49.75 49.10 46.94 51.93 50.75 44.08 42.29 44.98 46.23 46.85 50.96 48.40 52.70 55.85 53.51 54.90 53.18 54.60 56.49 62.77
54.04 54.32 54.41 54.57 54.31 54.07 54.08 54.18 54.39 54.70 55.07 55.46 55.82 56.02 56.13 56.42 51.29 47.92 53.70 57.63 60.11 61.09 48.74 46.41 45.86 47.94 43.71 45.02 47.61 45.90 39.43 44.31 49.82 50.13 49.27 51.34 51.30 53.05 53.57 53.31 53.18 54.27 55.97 57.03 59.59
53.98 54.04 54.19 54.10 54.05 53.94 53.66 53.66 54.15 54.53 54.93 55.16 55.44 55.46 55.94 55.58 47.29 49.37 60.32 60.13 62.33 60.21 49.98 48.36 47.91 45.46 40.37 42.42 45.17 45.38 41.11 47.87 50.23 51.27 51.92 51.33 51.55 53.85 52.12 50.61 53.69 53.24 54.24 55.59 55.85
53.55 53.58 53.85 53.72 53.39 52.75 53.31 53.65 53.82 54.36 54.69 54.80 55.27 55.58 56.08 51.84 39.25 49.94 62.11 61.80 62.27 54.92 50.47 48.22 44.49 39.02 38.65 39.10 44.04 41.00 45.61 48.15 49.58 51.39 50.32 49.44 52.36 51.90 52.35 52.54 56.14 56.55 56.65 55.33 55.43
53.09 53.31 53.35 53.35 53.57 52.92 52.54 52.93 53.47 53.80 54.07 54.59 55.33 56.23 51.14 46.49 48.21 55.44 63.59 62.01 57.59 54.23 49.64 46.60 42.00 38.40 35.57 38.50 40.39 40.56 43.11 45.06 45.63 45.77 47.71 50.72 49.36 50.61 50.56 53.13 56.11 57.09 57.00 55.42 55.47
53.08 52.92 52.92 53.29 53.04 53.08 52.71 52.58 52.68 53.12 53.80 54.52 55.71 56.52 49.08 42.52 53.75 56.50 56.58 55.05 54.78 50.40 48.22 46.91 41.97 42.97 38.36 37.84 37.32 40.60 41.40 42.51 43.18 43.53 44.33 44.99 45.96 47.21 48.98 51.57 52.09 54.22 55.19 55.01 55.32
53.79 53.05 53.00 52.71 52.75 52.94 52.89 52.77 52.37 53.40 54.11 54.80 56.33 54.89 47.48 44.30 52.88 51.69 54.52 49.02 50.47 51.10 47.00 47.29 46.35 43.17 41.23 38.72 40.05 40.47 37.31 40.01 41.77 43.17 43.68 45.30 41.77 43.62 48.94 50.33 49.68 50.49 51.37 52.88 55.42
53.94 53.69 52.97 52.52 52.58 52.86 53.17 53.18 52.91 53.53 54.25 55.13 56.90 51.97 42.00 53.57 52.96 50.29 48.73 49.22 48.84 50.03 49.12 48.05 46.79 42.62 39.37 39.84 39.44 36.06 33.81 30.85 38.09 41.68 43.14 43.39 38.69 45.18 46.72 46.76 46.89 48.42 49.52 50.29 52.29
53.92 53.42 52.83 52.37 52.62 53.14 53.40 53.28 53.96 54.18 54.86 55.07 49.87 46.04 45.10 56.19 49.17 49.79 47.41 45.72 47.56 47.87 47.63 50.38 45.39 40.87 40.81 34.35 31.26 32.38 27.28 30.15 35.82 39.71 39.53 40.16 35.90 41.88 45.17 44.70 44.52 45.10 46.12 47.55 48.42
53.79 53.12 52.68 52.10 52.80 53.26 53.27 52.79 52.60 53.23 53.88 55.09 52.69 44.49 47.70 47.37 48.30 48.26 47.65 47.61 46.59 46.13 45.63 43.56 38.72 35.93 33.48 31.83 26.11 29.70 29.58 32.61 33.08 38.67 38.99 37.40 38.20 41.92 43.95 43.65 43.86 43.98 44.84 45.86 47.12
53.24 52.68 52.33 52.19 53.04 53.15 50.04 45.39 42.54 42.00 47.42 43.24 46.76 47.26 50.38 51.44 50.07 46.83 49.16 47.48 46.97 42.64 35.74 38.79 34.02 30.80 34.59 35.75 36.87 35.65 33.82 32.85 36.31 39.73 37.39 36.38 37.64 39.51 41.70 41.79 41.22 42.97 43.62 44.07 45.36
52.04 51.85 52.52 52.88 52.92 52.65 46.28 45.09 45.60 45.07 39.80 46.68 47.34 49.15 51.94 51.98 44.21 46.56 49.18 42.95 40.81 35.57 37.66 34.72 30.96 37.71 39.64 38.78 36.74 35.68 33.02 32.10 36.41 40.59 38.91 36.71 37.34 39.87 39.83 40.66 41.39 42.26 42.88 43.37 44.31
51.94 51.89 52.25 52.71 52.49 47.97 44.71 47.01 50.07 45.13 37.32 43.15 46.94 45.92 46.31 47.20 42.97 43.78 46.22 43.24 39.67 35.48 34.31 31.61 35.98 40.51 39.64 37.37 35.82 33.75 33.35 33.94 34.26 38.41 38.90 36.12 35.78 37.02 39.65 40.68 42.08 41.79 42.94 43.27 42.96
51.47 51.66 52.10 52.07 47.12 44.55 45.99 50.34 47.76 46.31 34.59 41.15 41.99 44.31 44.42 43.53 41.33 47.64 47.45 43.54 39.08 35.05 36.17 34.47 38.20 38.06 35.61 35.92 37.35 31.45 38.68 37.71 36.25 33.21 26.71 36.31 26.02 35.18 36.99 37.39 39.49 41.07 40.35 40.09 41.56
51.26 51.36 51.81 51.92 43.10 44.66 48.91 48.21 46.50 46.05 22.70 42.42 41.67 46.26 42.94 40.65 42.53 44.85 47.44 43.11 37.43 37.50 35.90 34.27 35.21 35.09 33.87 36.28 39.43 34.70 39.59 36.56 36.01 31.84 28.33 30.71 25.48 29.92 37.30 36.70 37.35 38.49 42.69 44.15 45.57
50.81 50.86 51.63 47.76 44.64 47.20 48.71 46.59 46.62 33.63 25.04 38.61 42.22 40.62 39.58 41.28 41.75 43.78 43.67 44.17 42.48 36.75 36.27 35.99 39.00 37.38 37.28 40.88 39.81 40.50 35.69 33.33 31.69 27.84 21.59 28.91 28.09 27.95 31.00 33.78 36.47 42.05 44.48 45.62 45.64
50.29 50.65 49.43 48.85 43.95 46.96 46.33 44.57 33.07 26.64 40.33 36.76 37.55 39.99 37.65 37.88 40.17 40.78 38.99 35.91 32.41 28.42 28.49 34.20 34.47 39.75 41.60 35.01 36.85 34.51 27.73 20.71 19.65 20.95 21.67 30.35 27.89 29.75 35.92 39.60 41.33 42.21 43.61 44.83 45.62
49.38 49.57 48.94 49.01 46.34 47.38 43.97 37.24 27.79 35.88 35.89 41.24 39.72 39.10 35.70 38.45 38.47 38.82 36.95 32.86 38.17 34.01 28.52 26.08 24.95 35.30 39.90 35.66 31.17 30.75 29.24 20.77 16.49 19.24 22.09 30.96 23.88 29.35 37.95 42.60 43.31 44.38 44.08 44.76 44.08
48.23 45.16 47.04 49.11 50.00 45.10 40.03 28.62 27.86 34.48 39.08 38.16 38.41 34.38 34.34 38.02 36.78 36.26 34.43 34.55 36.83 35.65 28.52 27.25 29.00 38.02 38.99 38.44 35.77 30.08 26.61 30.86 25.24 24.73 21.26 24.88 30.18 35.18 38.37 40.67 42.13 41.81 42.65 42.69 43.80
42.89 44.60 46.05 49.45 46.61 43.78 36.13 34.59 34.71 40.28 40.68 39.96 32.55 36.13 30.80 33.39 33.57 33.00 33.22 39.51 37.75 39.70 35.91 32.27 26.95 35.56 37.92 38.22 37.24 32.90 35.36 24.56 22.97 19.60 18.59 23.59 25.24 27.56 34.40 36.77 40.10 39.46 40.52 42.92 44.40
43.88 42.19 47.71 46.43 46.35 40.75 30.92 33.20 38.71 43.86 42.75 38.72 35.59 34.36 34.19 32.49 32.72 31.82 34.05 38.01 40.82 38.92 37.74 33.16 29.59 30.70 34.02 31.56 29.78 29.61 28.00 29.38 26.49 24.37 16.68 19.37 24.05 33.70 35.61 37.29 37.99 39.17 41.49 42.46 42.98
40.77 37.42 47.23 46.72 36.70 34.04 32.82 37.49 42.23 42.40 42.86 40.93 39.36 37.34 34.78 35.07 32.80 33.25 33.36 37.73 42.17 40.57 34.30 35.59 30.42 26.52 29.91 35.78 37.60 33.91 31.61 30.21 21.93 21.86 26.34 24.21 25.76 38.09 37.88 39.01 39.52 39.67 42.73 42.93 44.74
38.26 39.71 46.88 44.41 30.20 30.46 35.22 38.79 40.77 40.54 40.15 38.76 37.48 38.80 37.88 33.36 30.05 34.91 36.40 41.25 41.83 39.82 36.00 35.45 28.35 24.96 25.66 28.93 33.24 31.29 33.67 32.73 30.11 27.78 27.56 23.60 25.53 38.82 39.35 39.71 41.02 41.19 42.38 44.25 45.47
38.19 33.30 37.24 37.90 36.18 32.66 33.29 35.79 36.88 43.09 40.89 40.16 38.32 38.37 35.23 32.73 34.07 33.03 34.81 40.44 40.85 39.46 44.87 40.73 29.82 28.96 23.42 27.04 28.91 29.44 32.67 34.14 33.59 28.44 26.84 27.79 29.87 34.87 37.20 38.36 40.48 41.75 42.85 44.56 46.02
35.35 33.09 35.42 29.86 30.80 32.15 33.67 36.18 35.73 35.25 38.74 37.94 35.32 36.33 33.27 29.10 30.67 31.45 34.43 35.98 39.31 41.53 37.70 35.76 28.63 30.95 32.31 34.13 34.32 33.50 33.60 34.36 32.02 32.30 28.62 30.82 30.76 34.83 37.61 38.13 39.89 42.05 43.96 45.43 47.60
34.32 33.54 34.97 33.02 34.60 34.11 34.03 32.42 34.37 36.15 35.11 34.09 32.30 35.27 33.80 29.94 31.64 29.85 32.20 32.27 32.97 36.58 34.08 33.34 28.29 31.65 30.96 34.82 34.72 32.19 34.36 34.69 34.37 34.56 34.29 34.21 33.00 38.37 38.49 39.29 39.49 41.32 42.81 43.78 45.36
38.98 37.97 35.55 33.37 32.98 29.14 29.67 32.70 34.48 36.10 37.39 38.17 35.76 32.96 31.85 34.23 37.30 37.23 36.95 37.26 37.12 33.45 32.23 32.00 30.29 29.23 26.30 32.80 32.36 28.24 32.85 34.25 35.46 36.19 34.35 30.66 35.97 37.90 38.26 39.02 39.66 41.13 42.90 43.54 45.40
MSLP
1019.38 1018.96 1018.58 1018.20 1017.82 1017.49 1017.17 1016.89 1016.58 1016.21 1015.84 1015.50 1015.03 1014.52 1014.10 1013.82 1013.41 1013.16 1012.29 1010.19 1010.05 1009.57 1009.64 1009.34 1009.10 1008.94 1009.07 1009.17 1009.03 1009.09 1010.20 1009.55 1008.16 1007.53 1007.02 1005.87 1006.17 1005.54 1005.15 1004.94 1004.39 1003.95 1003.78 1003.34 1002.62
1019.30 1018.87 1018.42 1017.97 1017.56 1017.24 1016.93 1016.62 1016.34 1016.00 1015.64 1015.26 1014.83 1014.33 1013.99 1013.70 1013.15 1012.21 1009.76 1009.52 1009.63 1009.62 1009.64 1009.61 1009.25 1009.16 1009.33 1009.16 1009.09 1009.43 1009.79 1008.90 1007.79 1007.25 1006.83 1005.95 1006.30 1005.71 1005.37 1004.58 1004.46 1003.65 1003.31 1003.14 1002.83
1019.10 1018.64 1018.17 1017.72 1017.33 1016.99 1016.66 1016.37 1016.05 1015.71 1015.40 1015.09 1014.66 1014.22 1013.79 1013.48 1012.87 1009.92 1008.77 1009.32 1009.57 1009.74 1009.80 1009.79 1009.59 1009.64 1009.57 1009.32 1009.37 1009.17 1008.96 1008.43 1007.63 1007.28 1007.08 1006.11 1005.73 1006.03 1005.51 1004.45 1004.84 1004.41 1003.71 1003.31 1003.25
1018.97 1018.45 1017.93 1017.49 1017.04 1016.71 1016.43 1016.03 1015.71 1015.41 1015.10 1014.86 1014.40 1013.99 1013.62 1013.42 1011.86 1008.83 1008.67 1009.29 1009.74 1009.91 1009.93 1009.68 1009.72 1009.66 1009.75 1009.67 1009.13 1008.96 1008.49 1008.25 1007.99 1007.49 1007.14 1006.92 1006.07 1005.59 1005.45 1004.14 1004.87 1004.43 1003.80 1003.58 1003.31
1018.78 1018.21 1017.68 1017.12 1016.70 1016.35 1016.01 1015.71 1015.42 1015.11 1014.82 1014.50 1014.15 1013.88 1013.63 1012.85 1010.60 1008.46 1008.73 1009.29 1009.72 1009.90 1009.71 1009.61 1009.63 1009.67 1009.69 1009.59 1009.44 1009.18 1008.85 1008.50 1008.19 1007.89 1007.40 1007.08 1006.20 1006.24 1003.90 1003.84 1004.41 1004.22 1003.83 1003.72 1003.34
1018.67 1018.10 1017.49 1016.87 1016.37 1015.90 1015.50 1015.20 1015.00 1014.78 1014.47 1014.18 1013.97 1013.88 1013.69 1011.77 1008.50 1008.43 1008.89 1009.41 1009.46 1009.65 1009.41 1009.37 1009.24 1009.16 1009.49 1009.61 1009.69 1009.44 1009.21 1008.89 1008.48 1008.21 1007.65 1007.16 1006.23 1005.80 1003.70 1003.89 1003.74 1003.94 1003.71 1003.66 1003.57
1018.34 1017.81 1017.23 1016.60 1015.95 1015.45 1015.00 1014.61 1014.44 1014.27 1014.14 1013.96 1013.82 1013.80 1013.28 1010.35 1008.85 1008.84 1009.05 1009.15 1009.01 1009.11 1008.99 1008.74 1008.88 1009.28 1009.83 1009.90 1009.86 1009.71 1009.68 1009.18 1008.43 1007.69 1007.24 1006.85 1006.20 1005.11 1004.60 1004.32 1003.68 1003.49 1003.76 1003.46 1003.32
1018.00 1017.48 1016.92 1016.29 1015.61 1014.93 1014.39 1014.06 1013.90 1013.74 1013.68 1013.67 1013.57 1013.60 1011.97 1009.39 1008.98 1008.95 1008.85 1008.89 1008.47 1008.53 1008.76 1008.45 1008.74 1009.35 1009.87 1010.25 1010.41 1010.58 1010.68 1010.09 1008.65 1008.09 1007.14 1006.97 1005.20 1005.37 1005.12 1005.04 1004.67 1004.15 1003.72 1003.34 1003.70
1017.74 1017.19 1016.67 1015.96 1015.27 1014.53 1013.85 1013.40 1013.20 1013.10 1013.20 1013.41 1013.62 1013.24 1010.87 1008.83 1008.73 1008.18 1008.30 1008.40 1008.21 1008.32 1008.44 1008.49 1009.03 1009.87 1010.33 1011.06 1011.56 1011.52 1011.64 1010.68 1009.34 1007.98 1007.61 1007.24 1006.25 1006.18 1005.77 1005.82 1005.38 1004.99 1004.56 1004.23 1003.32
1017.44 1016.81 1016.29 1015.66 1014.91 1014.06 1013.39 1012.70 1012.59 1012.65 1012.98 1013.12 1012.93 1012.84 1010.32 1009.11 1008.28 1007.96 1007.85 1007.95 1008.24 1008.46 1008.70 1009.11 1010.05 1010.64 1011.64 1012.12 1012.29 1012.00 1011.72 1010.98 1010.26 1009.14 1008.34 1007.81 1007.43 1007.00 1006.51 1006.38 1006.05 1005.62 1005.04 1004.60 1004.18
1017.18 1016.49 1015.94 1015.29 1014.63 1013.84 1013.22 1012.71 1013.05 1012.79 1012.56 1012.11 1011.79 1011.30 1009.90 1008.94 1008.02 1008.01 1007.74 1007.99 1008.32 1008.95 1009.66 1010.08 1010.80 1011.24 1011.32 1011.41 1011.38 1011.59 1011.57 1011.17 1010.38 1009.57 1009.23 1008.61 1007.05 1006.83 1006.47 1006.33 1006.27 1005.83 1005.50 1005.08 1004.68
1016.95 1016.26 1015.48 1014.88 1014.30 1013.71 1013.49 1013.30 1012.80 1012.68 1012.06 1011.01 1010.65 1010.58 1009.73 1009.37 1008.94 1007.88 1007.70 1008.41 1008.79 1009.50 1009.87 1010.62 1010.84 1010.55 1010.47 1010.67 1011.08 1011.20 1011.25 1011.25 1010.74 1010.14 1009.76 1009.11 1007.32 1006.98 1006.65 1006.44 1006.22 1005.97 1005.94 1005.57 1004.77
1016.69 1015.96 1015.18 1014.45 1013.93 1013.77 1013.47 1012.79 1012.04 1012.16 1012.21 1010.67 1009.92 1009.51 1008.96 1009.02 1008.70 1008.04 1008.06 1008.44 1009.01 1009.66 1010.18 1010.70 1010.39 1010.08 1010.13 1010.30 1010.52 1010.74 1011.01 1011.25 1011.33 1010.64 1009.93 1009.20 1006.63 1006.78 1006.57 1006.24 1005.92 1006.01 1005.86 1005.56 1005.16
1016.39 1015.66 1014.91 1014.22 1013.91 1014.01 1013.11 1012.26 1012.03 1012.00 1012.06 1010.51 1009.35 1008.42 1008.40 1008.47 1008.44 1007.84 1007.97 1008.66 1009.21 1009.79 1010.14 1010.39 1009.92 1010.02 1010.11 1010.28 1010.49 1010.79 1011.04 1011.40 1011.60 1011.54 1011.62 1010.75 1008.05 1006.28 1006.34 1006.30 1006.16 1005.80 1005.76 1005.83 1005.59
1015.97 1015.37 1014.74 1014.36 1014.00 1013.63 1012.78 1012.23 1011.85 1011.91 1011.52 1010.06 1008.87 1008.03 1008.37 1008.84 1008.50 1007.87 1007.78 1008.52 1009.28 1009.78 1010.45 1010.43 1010.02 1010.00 1010.08 1010.18 1010.53 1011.06 1011.21 1011.72 1012.15 1012.37 1012.22 1011.62 1011.15 1006.13 1006.53 1006.51 1006.41 1006.38 1006.24 1006.14 1006.06
1015.51 1014.97 1014.57 1014.53 1014.43 1012.94 1012.46 1012.14 1012.14 1012.56 1011.42 1010.09 1009.20 1008.91 1009.06 1008.83 1008.53 1008.23 1008.38 1008.65 1009.22 1009.97 1010.49 1010.49 1010.14 1010.14 1010.16 1010.38 1010.85 1011.40 1012.09 1012.65 1012.99 1013.37 1012.97 1011.82 1011.14 1007.73 1007.13 1006.90 1006.75 1006.73 1006.58 1006.35 1006.06
1014.92 1014.34 1014.27 1014.02 1013.53 1012.79 1012.47 1012.58 1013.04 1012.46 1011.47 1011.09 1010.40 1009.92 1009.75 1009.40 1009.01 1008.66 1008.90 1009.54 1010.29 1010.84 1011.02 1010.89 1010.73 1010.53 1010.51 1010.96 1011.34 1012.09 1013.19 1014.46 1014.52 1014.41 1013.62 1012.27 1011.70 1008.36 1007.46 1006.80 1006.68 1006.76 1006.56 1006.43 1006.03
1014.41 1013.89 1013.76 1013.22 1012.73 1012.84 1013.15 1013.36 1013.47 1012.79 1012.09 1011.46 1010.98 1010.58 1010.65 1010.39 1010.11 1009.87 1009.78 1010.43 1010.69 1011.20 1011.68 1011.87 1011.65 1011.09 1011.02 1011.29 1011.90 1012.52 1013.59 1015.27 1015.25 1015.01 1014.00 1012.56 1010.91 1008.33 1007.04 1006.66 1006.74 1006.97 1006.87 1006.54 1006.06
1014.09 1013.91 1013.73 1012.67 1012.58 1012.98 1013.80 1014.04 1013.89 1012.87 1012.23 1011.90 1011.59 1011.52 1011.55 1011.23 1011.20 1010.94 1010.96 1011.10 1011.36 1011.61 1012.26 1012.46 1012.01 1011.34 1011.28 1011.59 1012.19 1012.77 1013.66 1014.14 1015.02 1015.06 1014.39 1012.58 1010.07 1008.12 1006.95 1006.96 1006.80 1006.76 1006.63 1006.49 1006.07
1015.13 1014.77 1013.74 1012.61 1012.64 1013.28 1014.09 1014.36 1013.51 1012.41 1011.93 1011.94 1012.11 1012.15 1012.34 1012.22 1012.07 1011.84 1011.59 1011.54 1011.77 1011.93 1012.17 1012.85 1012.91 1011.91 1011.73 1011.83 1012.30 1012.68 1013.49 1014.57 1015.68 1015.78 1014.55 1012.15 1010.38 1008.29 1007.27 1007.05 1006.99 1006.94 1006.67 1006.09 1005.67
1015.50 1015.09 1013.49 1012.87 1012.94 1014.08 1015.14 1014.58 1013.27 1012.21 1011.71 1011.85 1012.15 1012.42 1012.60 1012.75 1012.59 1012.35 1011.89 1011.61 1011.64 1012.08 1012.36 1013.16 1013.71 1013.08 1012.71 1012.70 1012.83 1013.45 1013.86 1014.77 1015.57 1015.63 1014.78 1012.76 1009.53 1007.63 1007.34 1007.12 1007.21 1006.92 1006.57 1006.29 1005.57
1016.53 1015.96 1013.70 1013.10 1014.43 1015.82 1015.64 1014.63 1013.45 1012.31 1011.76 1011.64 1011.89 1012.34 1012.66 1012.82 1012.81 1012.57 1011.98 1011.52 1011.57 1011.94 1012.67 1013.27 1013.93 1014.02 1013.35 1012.65 1012.42 1012.99 1013.60 1014.21 1015.10 1015.05 1014.65 1013.29 1008.34 1007.70 1007.29 1007.04 1007.08 1006.86 1006.24 1005.87 1005.41
1017.85 1016.77 1014.31 1014.04 1015.89 1016.69 1016.00 1014.91 1013.72 1012.75 1012.28 1012.00 1012.16 1012.35 1012.62 1013.06 1013.25 1012.66 1012.14 1011.66 1011.72 1011.99 1012.49 1013.27 1014.19 1014.45 1013.53 1013.12 1012.92 1013.07 1013.32 1013.54 1013.96 1014.05 1013.26 1012.79 1008.23 1007.32 1007.27 1006.92 1006.45 1006.14 1005.73 1005.39 1004.86
1018.34 1017.94 1016.75 1016.53 1017.08 1017.23 1017.01 1015.58 1014.29 1013.10 1012.79 1012.65 1012.69 1012.70 1013.17 1013.43 1013.38 1013.04 1012.48 1011.92 1011.84 1012.11 1012.35 1012.95 1013.92 1014.44 1014.21 1013.38 1013.36 1013.17 1012.90 1012.99 1013.26 1012.83 1011.85 1010.32 1007.67 1007.28 1006.99 1006.65 1005.90 1005.70 1005.56 1005.04 1004.53
1019.09 1019.47 1019.12 1018.46 1018.23 1018.13 1017.61 1016.40 1015.30 1014.38 1013.59 1013.34 1013.25 1013.60 1013.91 1014.10 1013.89 1013.60 1013.03 1012.72 1012.31 1012.22 1012.46 1013.06 1013.87 1014.15 1013.50 1012.97 1012.84 1012.42 1011.72 1011.21 1011.45 1010.78 1010.66 1008.47 1008.18 1006.13 1006.35 1005.95 1005.74 1005.40 1005.07 1004.63 1003.73
1020.28 1020.36 1019.75 1019.22 1018.71 1018.33 1017.62 1016.91 1016.23 1015.62 1015.06 1014.39 1014.39 1014.32 1014.41 1014.52 1014.26 1014.06 1013.71 1013.43 1012.82 1012.45 1012.87 1013.51 1013.84 1013.86 1013.21 1012.84 1012.27 1011.30 1010.35 1009.86 1009.24 1008.88 1008.41 1007.83 1006.41 1005.98 1005.93 1005.95 1005.82 1005.42 1004.90 1004.18 1003.26
1020.91 1020.79 1020.69 1019.81 1019.26 1018.85 1018.04 1017.61 1016.98 1016.57 1015.29 1014.74 1014.69 1014.58 1014.25 1014.00 1014.02 1013.75 1013.30 1012.85 1012.54 1012.58 1013.01 1013.65 1013.93 1014.10 1012.47 1012.43 1011.70 1010.31 1008.59 1008.18 1007.91 1007.51 1007.45 1007.11 1005.74 1005.63 1005.87 1005.85 1005.56 1004.97 1004.60 1003.79 1003.02
Wind_Speed
17 17 17 17 17 17 17 16 16 16 15 15 15 16 16 16 17 3 7 12 7 10 4 6 3 2 1 2 4 4 2 5 5 3 3 5 3 3 5 4 8 6 5 7 8
17 17 17 17 18 17 17 17 16 16 15 15 15 16 15 15 6 9 11 9 13 3 2 2 2 3 1 3 2 4 4 8 3 2 4 8 5 10 9 17 10 13 8 7 8
18 18 18 18 18 18 18 17 16 15 15 14 15 16 15 12 4 6 6 11 8 4 2 2 2 1 2 2 4 5 6 4 3 3 4 11 15 7 11 18 3 11 10 10 3
20 20 19 19 19 19 19 18 16 16 15 14 15 15 14 1 1 3 8 10 6 3 2 2 2 3 4 5 4 4 4 3 1 5 5 8 11 16 16 20 9 8 8 7 7
21 21 20 20 20 20 19 18 17 16 15 14 13 11 4 2 9 5 8 7 5 4 3 2 2 1 3 2 3 4 4 4 6 7 7 11 15 13 28 17 8 12 10 8 9
20 20 21 22 22 21 20 18 17 15 14 13 11 6 1 2 4 4 7 4 5 4 2 4 3 4 1 1 1 2 2 6 3 5 5 7 12 6 21 8 11 6 9 8 9
20 21 22 22 23 21 20 18 16 14 13 11 9 2 1 10 4 6 7 4 4 6 3 4 3 3 3 5 1 3 6 5 4 4 7 7 12 18 16 7 11 10 12 11 9
21 20 22 23 23 22 20 18 15 14 12 9 5 2 7 5 2 4 3 6 7 6 4 3 3 3 2 1 7 4 5 3 5 4 6 7 20 8 8 9 10 9 11 12 10
22 21 21 23 22 21 21 20 17 13 9 5 1 2 8 9 2 6 7 4 3 2 4 1 4 3 5 4 5 6 1 2 7 5 4 4 6 7 9 6 8 7 8 11 15
23 22 21 22 21 21 21 18 3 2 3 5 4 2 4 3 4 1 3 3 3 2 5 4 5 3 4 4 2 3 1 4 4 6 5 10 11 6 6 5 7 8 9 9 11
24 24 22 22 21 18 11 2 6 4 2 5 3 4 4 7 3 2 2 2 3 6 2 2 4 4 9 9 6 2 4 6 5 6 5 9 18 10 6 4 6 7 8 9 9
26 26 25 22 21 17 2 4 2 5 6 7 9 6 10 2 5 4 4 2 3 2 2 6 2 5 5 5 5 4 4 2 3 4 7 9 22 13 5 6 5 6 7 8 9
24 25 25 22 22 2 1 3 7 1 2 7 4 4 6 8 4 5 5 2 2 1 2 3 6 4 3 4 3 2 2 3 4 5 5 8 20 6 3 4 5 3 6 8 8
24 24 22 23 3 4 4 4 7 4 4 3 2 5 3 1 3 5 5 4 1 2 3 4 3 2 3 1 2 3 1 2 5 8 3 5 16 16 5 6 3 9 8 8 8
24 24 20 12 2 1 4 8 5 5 6 2 1 2 2 4 3 3 4 3 6 6 4 7 4 5 3 2 1 5 2 3 3 5 3 4 5 3 12 13 8 7 5 6 8
25 22 14 0 2 6 7 7 4 6 3 3 3 4 5 3 4 0 3 2 1 3 2 8 2 3 2 1 0 2 2 4 4 1 2 10 8 6 3 1 3 4 7 9 8
27 22 6 0 3 5 5 4 6 6 5 5 4 5 2 4 4 5 6 3 1 1 3 3 2 2 3 2 5 6 6 5 6 3 5 3 5 9 12 6 6 6 9 10 12
26 15 2 4 3 5 4 6 7 3 3 2 4 6 4 7 5 6 3 2 6 4 3 3 5 4 2 4 4 4 8 6 5 3 9 6 7 8 5 5 4 4 8 10 12
17 3 2 4 1 3 6 7 4 3 2 4 5 4 5 5 3 6 5 2 3 4 3 1 5 3 2 2 5 3 3 5 3 2 2 6 10 9 9 5 4 8 9 10 12
3 4 4 4 4 5 6 1 3 2 2 2 1 1 2 4 5 6 1 2 4 1 2 3 5 4 1 3 4 2 2 1 3 3 6 6 7 11 13 9 6 9 10 13 13
4 4 4 5 4 6 4 4 4 5 4 3 3 4 4 2 2 2 5 2 3 2 3 2 4 4 2 4 6 2 1 3 3 4 5 5 9 6 6 8 7 11 10 11 13
2 2 4 3 6 1 0 2 5 3 2 4 3 4 4 3 4 4 6 5 5 5 4 4 4 4 8 7 7 6 6 5 5 6 4 3 16 7 5 8 6 10 11 9 12
2 3 4 5 3 3 6 5 3 2 4 2 3 4 2 3 3 5 4 2 5 6 6 5 1 4 8 3 5 2 4 4 2 1 12 7 12 4 5 8 10 12 10 9 12
3 4 6 6 1 3 4 5 5 5 2 3 3 2 4 2 4 5 3 4 2 3 6 7 4 7 7 8 3 9 11 11 11 6 8 17 27 20 18 16 13 8 9 9 8
4 1 2 4 2 2 3 3 4 5 5 5 3 5 1 4 3 6 3 4 4 7 3 8 7 6 10 14 12 16 21 20 16 18 14 19 21 23 15 10 7 8 10 11 11
3 4 4 3 3 4 2 2 3 3 4 3 1 6 4 6 7 7 6 4 8 5 4 2 4 5 8 10 15 20 19 20 21 19 18 21 25 10 5 6 6 10 12 14 14
3 2 3 3 3 1 3 2 4 7 6 3 3 3 4 8 5 11 12 11 11 7 6 7 5 2 16 10 10 13 19 10 5 6 5 9 18 4 12 10 7 9 13 17 11
Wind_Direction
344 341 337 334 332 330 330 327 325 324 322 320 320 320 320 325 320 314 227 220 201 232 284 298 284 268 139 238 203 108 160 228 231 140 231 318 357 183 316 320 323 341 5 305 38
343 339 335 334 331 330 328 325 324 323 321 320 319 315 319 326 309 267 244 231 225 206 265 270 308 25 187 219 223 153 176 220 225 100 322 292 308 325 338 317 317 320 329 16 60
340 337 334 333 330 328 326 323 321 320 320 318 314 312 320 326 315 258 193 212 206 190 273 335 339 249 191 217 211 195 201 207 288 348 316 302 301 310 295 284 290 290 312 329 18
338 335 333 331 330 326 323 320 319 318 318 316 315 319 319 118 162 272 156 185 191 174 259 205 160 147 180 212 241 251 246 227 255 285 291 273 303 298 273 266 280 278 289 290 314
337 333 330 327 326 325 320 316 316 315 314 314 316 324 345 326 254 258 162 173 160 175 235 161 122 142 199 228 311 199 273 307 339 311 283 284 278 264 279 286 278 279 275 254 278
334 331 328 326 323 322 318 314 312 309 306 307 314 329 318 311 247 242 144 150 220 196 200 155 185 209 96 307 162 327 286 289 272 245 232 246 269 258 266 327 301 292 282 260 236
335 332 331 328 324 322 317 311 305 300 296 295 306 236 295 237 4 41 155 203 204 195 249 194 174 94 134 323 307 319 338 341 215 232 233 211 259 246 277 299 287 301 286 292 248
334 331 330 330 327 323 317 310 302 291 285 281 285 226 248 230 246 291 171 293 248 211 236 206 137 115 133 301 9 15 43 18 278 262 256 172 253 285 3 347 329 337 333 346 340
332 331 330 330 328 321 313 306 294 275 265 249 169 176 273 307 240 229 168 215 297 161 245 262 101 115 26 66 10 13 188 258 309 321 281 191 312 328 328 350 318 332 327 327 327
332 330 330 330 326 319 317 309 288 218 163 166 246 331 278 316 249 265 216 192 242 20 357 68 52 97 45 75 233 246 249 249 260 298 317 295 272 268 288 298 300 312 317 319 319
332 330 331 329 324 320 336 40 20 6 174 214 209 270 280 319 285 245 282 118 66 58 62 9 90 206 238 206 223 235 238 246 270 284 312 288 293 300 275 246 280 299 310 312 309
330 332 330 326 324 323 129 48 232 246 315 247 244 244 264 273 303 282 140 147 72 305 11 24 207 212 253 207 195 185 207 251 272 319 327 305 291 293 268 253 229 279 299 298 304
330 329 328 327 321 312 297 239 303 17 64 300 200 201 228 141 233 262 143 172 134 286 112 156 245 304 11 338 30 341 113 333 269 301 266 306 288 257 263 275 287 269 263 282 276
330 330 328 327 29 325 298 326 325 124 69 294 238 268 135 138 281 221 180 142 56 226 289 254 265 71 356 302 95 339 80 323 330 352 304 55 289 289 266 271 296 288 308 323 334
330 332 331 323 215 81 281 328 308 60 67 177 284 244 93 179 283 252 159 84 194 198 101 257 291 329 328 255 93 240 312 288 274 262 279 206 259 285 334 305 283 335 337 327 313
331 333 338 22 321 249 322 325 54 46 62 5 42 1 352 266 249 239 186 96 151 154 220 245 219 188 200 281 261 347 339 353 359 46 285 211 198 317 208 303 268 281 304 293 278
331 330 311 195 254 337 342 43 39 79 323 1 314 325 300 284 323 185 189 63 258 325 291 332 355 11 89 354 356 62 51 339 340 359 241 302 310 265 287 248 195 252 287 298 297
329 326 226 226 284 12 40 55 66 92 337 356 315 325 44 6 5 0 55 86 31 91 78 124 318 174 164 173 215 250 160 160 256 221 278 308 250 252 251 244 260 249 264 284 300
327 341 330 265 226 81 70 53 197 284 287 313 321 38 342 340 48 31 18 106 71 48 119 39 260 274 321 128 131 265 200 211 216 312 280 226 270 289 258 241 293 320 327 312 308
35 359 291 322 79 60 71 231 209 260 176 25 25 27 322 311 25 25 320 347 129 79 133 200 290 248 297 34 352 162 210 332 12 263 248 257 259 250 273 288 298 301 302 304 305
37 36 276 335 60 44 107 244 290 294 192 176 235 265 251 288 274 241 251 333 134 141 102 154 172 278 30 192 211 354 280 81 128 169 212 292 256 217 248 268 266 277 290 290 302
27 37 311 27 47 22 275 265 290 308 315 229 185 211 225 241 269 254 232 192 162 167 168 202 167 265 240 278 249 170 206 150 131 267 234 235 268 271 268 254 261 263 275 281 301
46 276 319 71 92 320 306 293 262 303 304 272 255 212 203 233 280 218 238 211 197 170 175 185 257 309 329 14 355 114 206 201 203 270 247 259 262 213 259 276 261 259 268 280 310
51 0 329 37 60 101 354 282 319 315 254 17 245 50 27 271 235 275 248 257 341 252 296 163 172 191 224 247 207 282 261 259 253 245 260 240 278 275 285 276 282 285 273 270 295
25 303 182 302 329 346 237 273 291 350 335 338 317 11 219 262 276 248 249 310 262 274 283 149 204 209 242 257 267 267 271 275 259 253 244 272 264 273 275 257 279 301 309 289 290
37 16 355 293 315 330 334 83 294 347 257 264 43 288 293 232 221 271 268 206 225 274 184 160 250 196 257 247 253 269 270 263 262 261 255 258 266 273 285 296 306 296 304 300 297
334 352 97 280 323 44 233 37 308 333 287 195 270 299 264 250 249 258 237 236 239 211 194 173 170 157 272 284 293 271 245 229 230 224 220 261 275 291 293 282 275 292 298 299 304